Simultaneous Nadir Overpasses (SNOs) Predictions

Prediction of SNOs between METOP-B and NOAA-19 Satellite Orbit:

Table of predicted SNOs for the next 14.0 days since TLE Epoch: 11/25/2016
Index Date (METOP-B) Time (METOP-B) Lat,Lon (METOP-B) SZA (METOP-B ) Date (NOAA-19) Time (NOAA-19) Lat,Lon (NOAA-19) SZA (NOAA-19 ) Distance(km) Time Diff (sec)
1 12/03/2016 09:55:09 -76.61,-146.09 81.24 12/03/2016 09:53:55 -76.60,-146.15 81.25 1.71 74
2 12/03/2016 10:45:49 76.60, 21.21 98.76 12/03/2016 10:44:58 76.58, 21.19 98.73 2.46 51
3 12/03/2016 11:36:31 -76.59,-171.49 81.25 12/03/2016 11:35:56 -76.57,-171.51 81.28 2.56 35
4 12/03/2016 12:27:11 76.58, -4.19 98.75 12/03/2016 12:27:00 76.58, -4.34 98.75 3.95 11
5 12/03/2016 13:17:53 -76.57, 163.10 81.26 12/03/2016 13:17:58 -76.57, 162.96 81.26 3.78 5
6 12/03/2016 14:08:33 76.56, -29.60 98.74 12/03/2016 14:09:01 76.55, -29.71 98.73 3.20 28
7 12/03/2016 14:59:15 -76.55, 137.70 81.27 12/03/2016 14:59:59 -76.54, 137.59 81.28 3.23 44
8 12/03/2016 15:49:56 76.50, -55.17 98.68 12/03/2016 15:51:02 76.51, -55.07 98.70 3.04 66
9 12/03/2016 16:40:45 -76.18, 110.99 81.66 12/03/2016 16:41:53 -76.20, 113.41 81.59 64.40 68




NCC Satellite Simultaneous Nadir Overpasses (SNOs) Prediction Service
